Terminal Aerodrome Forecast
Issued by NWS

Home | Current Version | Previous Version | Text Only | Print | Product List | Glossary On
Versions: 1 2 3 4 5 6 7 8 9 10 11 12
000
FTUS45 KABQ 252300
TAFAEG
TAF
KAEG 252333Z 2600/2624 VRB06KT P6SM SCT120
     FM261700 21010KT P6SM SCT120
     FM261900 24013G23KT P6SM BKN100=

USA.gov is the U.S. government's official web portal to all federal, state and local government web resources and services.